Weather History for Galesburg, IL

Change the Weather History Date:

Friday, February 1, 2013

  Actual Average Record
Temperature  
Mean Temperature 10 °F -  
Max Temperature 21 °F 33 °F 53 °F (1968)
Min Temperature 0 °F 15 °F -10 °F (1979)
Degree Days  
Heating Degree Days 54    
Moisture  
Dew Point 1 °F    
Average Humidity 72    
Maximum Humidity 88    
Minimum Humidity 62    
Precipitation  
Precipitation 0.00 in - - ()
Sea Level Pressure  
Sea Level Pressure 30.31 in    
Wind  
Wind Speed 13 mph (WSW)    
Max Wind Speed 18 mph    
Max Gust Speed 30 mph    
Visibility 10 miles    
Events Snow    
Averages and records for this station are not official NWS values.
T = Trace of Precipitation, MM = Missing Value Source: NWS Daily Summary

Daily Weather History Graph

Daily Weather History Graph

Search for Another Location

Airport:

Trip Planner

Search our weather history database for the weather conditions in past years. The results will help you decide how hot, cold, wet, or windy it might be!

Date:

Astronomy

Feb. 01, 2013 Rise Set
Actual Time 7:11 AM CST 5:19 PM CST
Civil Twilight 6:42 AM CST 5:48 PM CST
Nautical Twilight 6:10 AM CST 6:21 PM CST
Astronomical Twilight 5:37 AM CST 6:53 PM CST
Moon 11:30 PM CST (2/1) 9:42 AM CST (2/1)
Length of Visible Light 11h 05m
Length of Day
10h 07m
Waning Gibbous, 70% of the Moon is Illuminated
Feb 1
Waning Gibbous
Feb 3
Last Quarter
Feb 10
New
Feb 17
First Quarter
Feb 25
Full

Hourly Weather History & Observations

Time (CST) Temp. Windchill Dew Point Humidity Pressure Visibility Wind Dir Wind Speed Gust Speed Precip Events Conditions
12:15 AM 3.7 °F -15.8 °F -3.8 °F 71% 30.30 in 7.0 mi WNW 17.3 mph 29.9 mph N/A   Mostly Cloudy
12:35 AM 3.2 °F -15.9 °F -3.6 °F 73% 30.31 in 10.0 mi WNW 16.1 mph 21.9 mph N/A   Mostly Cloudy
12:55 AM 3.2 °F -15.9 °F -4.2 °F 71% 30.32 in 10.0 mi WNW 16.1 mph 23.0 mph N/A   Mostly Cloudy
1:15 AM 3.2 °F -17.1 °F -3.6 °F 73% 30.32 in 10.0 mi WNW 18.4 mph - N/A   Mostly Cloudy
1:35 AM 3.2 °F -15.3 °F -3.8 °F 73% 30.32 in 10.0 mi WNW 15.0 mph 23.0 mph N/A   Overcast
1:55 AM 3.2 °F -17.1 °F -2.2 °F 78% 30.34 in 7.0 mi West 18.4 mph 23.0 mph N/A   Overcast
2:15 AM 3.0 °F -16.7 °F -2.9 °F 76% 30.34 in 7.0 mi West 17.3 mph 23.0 mph N/A   Mostly Cloudy
2:35 AM 2.7 °F -14.5 °F -2.9 °F 78% 30.35 in 10.0 mi West 12.7 mph - N/A   Mostly Cloudy
2:55 AM 2.3 °F -15.7 °F -2.9 °F 79% 30.35 in 10.0 mi West 13.8 mph - N/A   Mostly Cloudy
3:15 AM 1.9 °F -16.2 °F -4.0 °F 76% 30.35 in 10.0 mi West 13.8 mph - N/A   Scattered Clouds
3:35 AM 1.8 °F -16.4 °F -4.0 °F 77% 30.34 in 10.0 mi West 13.8 mph 21.9 mph N/A   Scattered Clouds
3:55 AM 1.4 °F -18.8 °F -4.4 °F 77% 30.34 in 10.0 mi West 17.3 mph - N/A   Scattered Clouds
4:15 AM 1.2 °F -17.1 °F -4.9 °F 75% 30.35 in 10.0 mi West 13.8 mph - N/A   Clear
4:35 AM 1.0 °F -16.6 °F -4.9 °F 76% 30.35 in 10.0 mi West 12.7 mph - N/A   Clear
4:55 AM 0.5 °F -17.3 °F -5.3 °F 77% 30.36 in 10.0 mi WNW 12.7 mph 19.6 mph N/A   Clear
5:15 AM 0.3 °F -17.5 °F -5.4 °F 77% 30.36 in 10.0 mi West 12.7 mph - N/A   Clear
5:35 AM 0.1 °F -19.2 °F -6.0 °F 75% 30.36 in 10.0 mi West 15.0 mph 20.7 mph N/A   Clear
5:55 AM -0.0 °F -19.4 °F -6.3 °F 75% 30.36 in 10.0 mi West 15.0 mph 20.7 mph N/A   Clear
6:15 AM -0.4 °F -18.4 °F -6.3 °F 76% 30.37 in 10.0 mi West 12.7 mph - N/A   Clear
6:35 AM -0.8 °F -17.2 °F -6.7 °F 76% 30.37 in 10.0 mi West 10.4 mph - N/A   Clear
6:55 AM -0.9 °F -15.3 °F -6.3 °F 78% 30.38 in 10.0 mi West 8.1 mph - N/A   Clear
7:15 AM -0.9 °F -16.4 °F -6.7 °F 77% 30.38 in 10.0 mi West 9.2 mph - N/A   Clear
7:35 AM -0.8 °F -17.2 °F -6.0 °F 79% 30.39 in 10.0 mi West 10.4 mph - N/A   Clear
7:55 AM -0.2 °F -15.5 °F -5.4 °F 79% 30.39 in 7.0 mi West 9.2 mph - N/A   Scattered Clouds
8:15 AM 0.3 °F -16.7 °F -5.1 °F 78% 30.39 in 7.0 mi West 11.5 mph - N/A   Mostly Cloudy
8:35 AM 0.5 °F -15.6 °F -5.8 °F 75% 30.40 in 5.0 mi West 10.4 mph - N/A   Haze
8:55 AM 1.0 °F -14.9 °F -6.0 °F 72% 30.40 in 10.0 mi WNW 10.4 mph - N/A   Scattered Clouds
9:15 AM 1.9 °F -13.8 °F -5.6 °F 71% 30.41 in 10.0 mi West 10.4 mph - N/A   Clear
9:35 AM 2.1 °F -12.6 °F -5.8 °F 69% 30.40 in 10.0 mi West 9.2 mph - N/A   Clear
9:55 AM 2.8 °F -10.7 °F -5.3 °F 69% 30.41 in 10.0 mi West 8.1 mph - N/A   Clear
10:15 AM 4.1 °F -8.0 °F -4.4 °F 68% 30.41 in 10.0 mi WSW 6.9 mph - N/A   Clear
10:35 AM 4.5 °F -8.7 °F -4.5 °F 66% 30.41 in 10.0 mi SW 8.1 mph - N/A   Clear
10:55 AM 5.4 °F -7.6 °F -3.3 °F 68% 30.41 in 10.0 mi West 8.1 mph - N/A   Clear
11:15 AM 5.9 °F -5.8 °F -2.4 °F 69% 30.40 in 10.0 mi SW 6.9 mph - N/A   Clear
11:35 AM 6.8 °F -5.9 °F -1.7 °F 68% 30.40 in 10.0 mi West 8.1 mph 11.5 mph N/A   Clear
11:55 AM 7.3 °F -6.2 °F -1.8 °F 66% 30.39 in 10.0 mi SW 9.2 mph - N/A   Clear
12:15 PM 8.4 °F -2.8 °F -1.1 °F 65% 30.38 in 10.0 mi WSW 6.9 mph - N/A   Clear
12:35 PM 9.3 °F -1.7 °F 0.5 °F 67% 30.36 in 10.0 mi WSW 6.9 mph - N/A   Clear
12:55 PM 10.0 °F -2.9 °F 0.7 °F 66% 30.35 in 10.0 mi WSW 9.2 mph - N/A   Clear
1:15 PM 10.4 °F -1.5 °F 0.9 °F 65% 30.34 in 10.0 mi SW 8.1 mph - N/A   Clear
1:35 PM 11.5 °F -0.2 °F 1.4 °F 64% 30.33 in 10.0 mi SW 8.1 mph - N/A   Clear
1:55 PM 12.4 °F -2.3 °F 2.8 °F 66% 30.34 in 10.0 mi SSW 12.7 mph 17.3 mph N/A   Clear
2:15 PM 13.1 °F -1.4 °F 4.1 °F 67% 30.33 in 10.0 mi WSW 12.7 mph 19.6 mph N/A   Mostly Cloudy
2:35 PM 12.7 °F -0.4 °F 3.7 °F 67% 30.32 in 10.0 mi SW 10.4 mph - N/A   Overcast
2:55 PM 12.4 °F -1.6 °F 2.7 °F 65% 30.31 in 10.0 mi SW 11.5 mph - N/A   Overcast
3:15 PM 13.1 °F 0.9 °F 3.6 °F 66% 30.31 in 10.0 mi SW 9.2 mph 16.1 mph N/A   Overcast
3:35 PM 13.3 °F 1.1 °F 4.8 °F 69% 30.30 in 10.0 mi WSW 9.2 mph - N/A   Overcast
3:55 PM 14.0 °F 2.9 °F 3.2 °F 62% 30.30 in 10.0 mi SW 8.1 mph - N/A   Overcast
4:15 PM 14.0 °F 0.5 °F 4.8 °F 67% 30.29 in 10.0 mi SSW 11.5 mph - N/A   Overcast
4:35 PM 14.4 °F 1.6 °F 5.9 °F 69% 30.27 in 10.0 mi SSW 10.4 mph - N/A   Overcast
4:55 PM 14.0 °F 1.2 °F 5.0 °F 67% 30.27 in 10.0 mi SW 10.4 mph - N/A   Overcast
5:15 PM 14.9 °F 2.3 °F 5.7 °F 67% 30.27 in 10.0 mi SSW 10.4 mph - N/A   Overcast
5:35 PM 14.9 °F 3.1 °F 5.4 °F 66% 30.27 in 10.0 mi SSW 9.2 mph - N/A   Overcast
5:55 PM 15.3 °F 2.8 °F 6.1 °F 67% 30.26 in 10.0 mi SSW 10.4 mph - N/A   Overcast
6:15 PM 15.8 °F 6.1 °F 6.6 °F 67% 30.25 in 10.0 mi South 6.9 mph - N/A   Overcast
6:35 PM 15.8 °F 6.1 °F 6.6 °F 67% 30.24 in 10.0 mi South 6.9 mph - N/A   Overcast
6:55 PM 16.3 °F 4.9 °F 7.0 °F 67% 30.23 in 10.0 mi South 9.2 mph - N/A   Overcast
7:15 PM 16.7 °F 7.2 °F 7.5 °F 67% 30.22 in 10.0 mi South 6.9 mph - N/A   Overcast
7:35 PM 17.1 °F 5.0 °F 8.2 °F 68% 30.20 in 10.0 mi SSE 10.4 mph - N/A   Overcast
7:55 PM 17.6 °F 7.3 °F 9.1 °F 69% 30.19 in 10.0 mi SSE 8.1 mph - N/A   Overcast
8:15 PM 18.0 °F 6.9 °F 9.5 °F 70% 30.19 in 10.0 mi South 9.2 mph - N/A   Overcast
8:35 PM 18.3 °F 7.3 °F 9.9 °F 70% 30.17 in 10.0 mi South 9.2 mph - N/A   Overcast
8:55 PM 18.3 °F 6.6 °F 10.4 °F 71% 30.16 in 10.0 mi South 10.4 mph - N/A   Overcast
9:15 PM 19.0 °F 6.8 °F 10.8 °F 70% 30.16 in 10.0 mi South 11.5 mph - N/A   Overcast
9:35 PM 19.6 °F 5.7 °F 11.7 °F 71% 30.16 in 10.0 mi South 15.0 mph 20.7 mph N/A   Overcast
9:55 PM 19.2 °F 7.0 °F 14.0 °F 80% 30.15 in 5.0 mi South 11.5 mph - N/A Snow Light Snow
10:15 PM 19.4 °F 6.6 °F 15.4 °F 85% 30.15 in 5.0 mi South 12.7 mph - N/A Snow Light Snow
10:35 PM 20.3 °F 8.3 °F 15.8 °F 83% 30.16 in 10.0 mi South 11.5 mph - N/A   Overcast
10:55 PM 20.3 °F 8.3 °F 16.3 °F 85% 30.16 in 10.0 mi South 11.5 mph - N/A Snow Light Snow
11:15 PM 21.0 °F 7.6 °F 17.4 °F 86% 30.15 in 10.0 mi SSW 15.0 mph - N/A Snow Light Snow
11:35 PM 21.2 °F 7.8 °F 17.6 °F 86% 30.14 in 10.0 mi South 15.0 mph - N/A   Overcast
11:55 PM 21.2 °F 8.9 °F 18.1 °F 88% 30.14 in 10.0 mi SSW 12.7 mph 17.3 mph N/A   Overcast